Observations
| Time | Sensor | AQI | SAQ | Temp °C | Hum % | Pres Pa | CO μg/m³ | H₂S μg/m³ | NO μg/m³ | NO₂ μg/m³ | O₃ μg/m³ | SO₂ μg/m³ | CO₂e PPM | VOC PPM | PM1 μg/m³ | PM2.5 μg/m³ | PM4 μg/m³ | PM10 μg/m³ | TPS µm |
|---|---|---|---|---|---|---|---|---|---|---|---|---|---|---|---|---|---|---|---|
| Monday 10 August 2026 | |||||||||||||||||||
| 23:58 | Trim Patrick St | 2 | 14.5 | 66 | 78,454 | 0.15 | 6.03 | 3.05 | 35.21 | 14.04 | 0 | 2.86 | 7.61 | 8.37 | |||||
| 23:57 | Trim Market St | 2 | 15.7 | 60 | 57,901 | 0.19 | 0 | 1.12 | 17.78 | 33.79 | 0 | 0.71 | 2.53 | 4.78 | |||||
| 23:57 | Trim Patrick St | 2 | 14.6 | 66 | 78,316 | 0.15 | 7.33 | 2.81 | 39.02 | 12.43 | 0 | 2.86 | 7.6 | 8.36 | |||||
| 23:56 | Trim Market St | 2 | 15.7 | 60 | 57,901 | 0.2 | 0 | 1.11 | 19.12 | 34.75 | 0 | 1.43 | 3.53 | 4.78 | |||||
| 23:56 | Trim Patrick St | 2 | 14.6 | 66 | 78,151 | 0.13 | 6.19 | 2.68 | 35.12 | 15.69 | 0 | 2 | 6.88 | 7.57 | |||||
| 23:55 | Trim Patrick St | 2 | 14.6 | 66 | 78,019 | 0.15 | 6 | 2.27 | 33.82 | 15.55 | 0 | 2.86 | 7.61 | 8.38 | |||||
| 23:54 | Trim Patrick St | 2 | 14.6 | 66 | 77,905 | 0.14 | 5.87 | 2.36 | 34.24 | 15.12 | 0 | 3.71 | 7.62 | 8.38 | |||||
| 23:53 | Trim Market St | 2 | 15.7 | 60 | 57,903 | 0.19 | 0 | 1.14 | 18.65 | 34.14 | 0 | 1.43 | 3.54 | 4.78 | |||||
| 23:53 | Trim Patrick St | 2 | 14.6 | 66 | 77,803 | 0.14 | 6.58 | 1.9 | 31.18 | 16.42 | 0 | 2 | 6.17 | 6.78 | |||||
| 23:51 | Trim Patrick St | 2 | 14.7 | 65 | 77,585 | 0.14 | 6.94 | 2.42 | 38.87 | 13.42 | 0 | 2.86 | 6.9 | 7.59 | |||||
| 23:50 | Trim Patrick St | 2 | 14.7 | 65 | 77,498 | 0.14 | 6.6 | 2.12 | 31.04 | 18.15 | 0 | 2.86 | 7.65 | 8.41 | |||||
| 23:49 | Trim Patrick St | 2 | 14.7 | 65 | 77,420 | 0.16 | 6.45 | 1.96 | 38.4 | 13.43 | 0 | 2.86 | 6.92 | 7.62 | |||||
| 23:48 | Trim Patrick St | 2 | 14.7 | 65 | 77,345 | 0.14 | 5.82 | 2.2 | 29.26 | 17.35 | 0 | 2.86 | 6.92 | 7.62 | |||||
| 23:47 | Trim Patrick St | 2 | 14.7 | 65 | 77,302 | 0.14 | 7.02 | 2.31 | 36.26 | 15.21 | 0 | 2.86 | 6.92 | 7.62 | |||||
| 23:46 | Trim Patrick St | 2 | 14.8 | 65 | 77,217 | 0.13 | 7.83 | 1.86 | 40.02 | 12.48 | 0 | 2 | 6.19 | 6.81 | |||||
| 23:45 | Trim Patrick St | 2 | 14.7 | 65 | 77,125 | 0.12 | 6.81 | 1.84 | 34.52 | 15.11 | 0 | 2.86 | 6.93 | 7.62 | |||||
| 23:44 | Trim Patrick St | 2 | 14.8 | 65 | 77,048 | 0.13 | 7.23 | 1.81 | 35.72 | 15.97 | 0 | 2.86 | 6.94 | 7.63 | |||||
| 23:42 | Trim Patrick St | 2 | 14.8 | 65 | 76,891 | 0.12 | 7.02 | 1.83 | 33.99 | 15.91 | 0 | 2.86 | 6.21 | 6.83 | |||||
| 23:41 | Trim Patrick St | 2 | 14.8 | 65 | 76,798 | 0.14 | 7.7 | 1.9 | 36.14 | 15.03 | 0 | 2 | 6.21 | 6.83 | |||||
| 23:40 | Trim Patrick St | 2 | 14.9 | 65 | 76,690 | 0.12 | 7.33 | 2.36 | 34.78 | 17.37 | 0 | 2 | 6.21 | 6.83 | |||||